Regional Weather Roundup
Issued by NWS

Home | Current Version | Previous Version | Graphics & Text | Print | Product List | Glossary On
Versions: 1 2 3 4 5 6 7 8 9 10 11 12 13 14 15 16 17 18 19 20 21 22 23 24 25 26 27 28 29 30 31 32 33 34 35 36 37 38 39 40 41 42 43 44 45 46 47 48 49
145
ASUS44 KJAN 300603
RWRMS

MISSISSIPPI HOURLY WEATHER ROUNDUP
NATIONAL WEATHER SERVICE JACKSON MS
100 AM CDT THU OCT 30 2014

NOTE: "FAIR: INDICATES FEW OR NO CLOUDS BELOW 12,000 FEET WITH NO
SIGNIFICANT WEATHER AND/OR OBSTRUCTIONS TO VISIBILITY.

MSZ001>002-007>008-010>013-018>021-025>028-034>036-300700-
NORTHWEST MISSISSIPPI

CITY           SKY/WX    TMP DP  RH WIND       PRES   REMARKS
CLARKSDALE     FAIR      50  50 100 CALM      30.15F
CLEVELAND      FAIR      49  48  95 CALM      30.14S
GREENWOOD      CLEAR     47  45  93 NE3       30.14F
6HR MIN TEMP:  46; 6HR MAX TEMP:  55;

GREENVILLE     CLEAR     49  46  90 CALM      30.14S
6HR MIN TEMP:  48; 6HR MAX TEMP:  58;

GRENADA        FAIR      45  45 100 CALM      30.14F
OLIVE BRANCH   CLEAR     46  46 100 CALM      30.15S
OXFORD         FAIR      43  41  93 CALM      30.15F
TUNICA         CLEAR     45  43  93 CALM      30.15S FOG
$$

MSZ003>006-009-014>017-022>024-029>033-037>039-300700-
NORTHEAST MISSISSIPPI

CITY           SKY/WX    TMP DP  RH WIND       PRES   REMARKS
COLUMBUS AFB   CLEAR     44  43  97 CALM      30.13F
6HR MIN TEMP:  43; 6HR MAX TEMP:  54;

CORINTH        FAIR      43  41  93 CALM      30.14S FOG
GOLDN TRIANGLE CLEAR    N/A N/A N/A NW5       30.12S
STARKVILLE     FAIR      43  43 100 CALM      30.13F
TUPELO         CLEAR     47  44  90 CALM      30.13F
6HR MIN TEMP:  47; 6HR MAX TEMP:  59;

$$

MSZ040-058-300700-
CENTRAL MISSISSIPPI

CITY           SKY/WX    TMP DP  RH WIND       PRES   REMARKS
JACKSON INTL   CLEAR     47  45  93 CALM      30.13S
6HR MIN TEMP:  47; 6HR MAX TEMP:  63;

JACKSON HAWKNS CLEAR     54  43  66 CALM      30.13S
6HR MIN TEMP:  54; 6HR MAX TEMP:  64;

MERIDIAN KEY   CLEAR     47  44  90 CALM      30.12S
6HR MIN TEMP:  46; 6HR MAX TEMP:  58;

MERIDIAN NAS   CLEAR     47  44  90 NW3       30.12S
6HR MIN TEMP:  47; 6HR MAX TEMP:  60;

RAYMOND        FAIR      46  41  81 CALM      30.14S
VICKSBURG      CLEAR     51  45  79 N6        30.14S
6HR MIN TEMP:  47; 6HR MAX TEMP:  62;

$$

MSZ059>079-300700-
SOUTH MISSISSIPPI

CITY           SKY/WX    TMP DP  RH WIND       PRES   REMARKS
BROOKHAVEN     FAIR      52  46  82 CALM      30.14S
COLUMBIA         N/A     52  50  93 MISG      30.10S
HATTIESBURG    CLEAR     55  50  83 CALM      30.12R
6HR MIN TEMP:  55; 6HR MAX TEMP:  70;

MCCOMB         CLEAR     58  46  64 N6        30.11S
6HR MIN TEMP:  58; 6HR MAX TEMP:  68;

NATCHEZ        CLEAR     48  45  87 CALM      30.13S
6HR MIN TEMP:  48; 6HR MAX TEMP:  61;

PINE BELT      CLEAR     54  45  71 N6        30.12S
6HR MIN TEMP:  54; 6HR MAX TEMP:  66;

$$

MSZ080>082-300700-
COASTAL MISSISSIPPI

CITY           SKY/WX    TMP DP  RH WIND       PRES   REMARKS
BILOXI         PTCLDY    64  59  84 NE10      30.06S
6HR MIN TEMP:  64; 6HR MAX TEMP:  74; 6HR PCP:  0.04;

PASCAGOULA     MOCLDY    63  57  81 N8        30.07R
6HR MIN TEMP:  63; 6HR MAX TEMP:  73;

GULFPORT       PTCLDY    64  55  72 N7        30.06S
6HR MIN TEMP:  64; 6HR MAX TEMP:  75;

$$



USA.gov is the U.S. government's official web portal to all federal, state and local government web resources and services.